Aberdeen / Amory, MS

12:38 AM CDT on April 24, 2018 (GMT -0500)
Aberdeen / Amory

Weather History for KM40 - November, 2013

Change the Weather History Date:

Sunday, November 10, 2013

  Actual Average (KCBM) Record (KCBM)
Temperature  
Mean Temperature 60 °F -  
Max Temperature 75 °F 63 °F 84 °F (2002)
Min Temperature 44 °F 43 °F 29 °F (2008)
Degree Days  
Heating Degree Days 6    
Growing Degree Days 10 (Base 50)    
Moisture  
Dew Point 42 °F    
Average Humidity 55    
Maximum Humidity 61    
Minimum Humidity 53    
Precipitation  
Precipitation 0.00 in - - ()
Sea Level Pressure  
Sea Level Pressure 30.30 in    
Wind  
Wind Speed 2 mph (North)    
Max Wind Speed 9 mph    
Max Gust Speed -    
Visibility 8 miles    
Events      
Averages and records for this station are not official NWS values.
T = Trace of Precipitation, MM = Missing Value Source: NWS Daily Summary

Daily Weather History Graph

Daily Weather History Graph

Search for Another Location

Airport or City:

Astronomy

Nov. 10, 2013 Rise Set
Actual Time 6:21 AM CST 4:53 PM CST
Civil Twilight 5:55 AM CST 5:19 PM CST
Nautical Twilight 5:25 AM CST 5:49 PM CST
Astronomical Twilight 4:56 AM CST 6:19 PM CST
Moon 12:41 PM CST (11/10) No Moon Set
Length of Visible Light 11h 24m
Length of Day
10h 31m
First Quarter, 56% of the Moon is Illuminated
Nov 10
First Quarter
Nov 17
Full
Nov 25
Last Quarter
Dec 2
New
Dec 9
First Quarter

Hourly Weather History & Observations

Time (CST) Temp. Windchill Dew Point Humidity Pressure Visibility Wind Dir Wind Speed Gust Speed Precip Events Conditions
12:15 AM 53.6 °F - 37.4 °F 54% 30.29 in 8.0 mi North - - N/A   Partly Cloudy
12:35 AM 53.6 °F - 37.4 °F 54% 30.29 in 9.0 mi NE 3.5 mph - N/A   Clear
12:55 AM 53.6 °F - 37.4 °F 54% 30.29 in 8.0 mi Calm Calm - N/A   Clear
1:15 AM 53.6 °F - 37.4 °F 54% 30.30 in 8.0 mi Calm Calm - N/A   Clear
1:35 AM 53.6 °F - 37.4 °F 54% 30.29 in 9.0 mi North 3.5 mph - N/A   Clear
1:55 AM 53.6 °F - 37.4 °F 54% 30.28 in 7.0 mi NNE 4.6 mph - N/A   Partly Cloudy
2:15 AM 53.6 °F - 37.4 °F 54% 30.28 in 9.0 mi Calm Calm - N/A   Mostly Cloudy
2:35 AM 53.6 °F - 37.4 °F 54% 30.29 in 8.0 mi Calm Calm - N/A   Mostly Cloudy
2:55 AM 53.6 °F - 37.4 °F 54% 30.28 in 8.0 mi Calm Calm - N/A   Partly Cloudy
3:15 AM 53.6 °F - 37.4 °F 54% 30.28 in 9.0 mi Calm Calm - N/A   Clear
3:35 AM 53.6 °F - 37.4 °F 54% 30.28 in 9.0 mi NE 6.9 mph - N/A   Clear
3:55 AM 53.6 °F - 37.4 °F 54% 30.30 in 9.0 mi SSW 4.6 mph - N/A   Partly Cloudy
4:15 AM 53.6 °F - 37.4 °F 54% 30.29 in 8.0 mi Calm Calm - N/A   Partly Cloudy
4:35 AM 53.6 °F - 37.4 °F 54% 30.30 in 8.0 mi North - - N/A   Mostly Cloudy
4:55 AM 53.6 °F - 37.4 °F 54% 30.30 in 7.0 mi Calm Calm - N/A   Overcast
5:15 AM 53.6 °F - 37.4 °F 54% 30.31 in 8.0 mi SSW 3.5 mph - N/A   Overcast
5:35 AM 53.6 °F - 37.4 °F 54% 30.30 in 7.0 mi East 3.5 mph - N/A   Mostly Cloudy
5:55 AM 53.6 °F - 37.4 °F 54% 30.30 in 7.0 mi NNE 3.5 mph - N/A   Mostly Cloudy
6:15 AM 53.6 °F - 37.4 °F 54% 30.31 in 8.0 mi Calm Calm - N/A   Mostly Cloudy
6:35 AM 51.8 °F - 37.4 °F 58% 30.32 in 7.0 mi Calm Calm - N/A   Scattered Clouds
6:55 AM 51.8 °F - 35.6 °F 54% 30.32 in 5.0 mi Calm Calm - N/A   Haze
7:15 AM 51.8 °F - 35.6 °F 54% 30.33 in 5.0 mi Calm Calm - N/A   Haze
7:35 AM 51.8 °F - 35.6 °F 54% 30.34 in 5.0 mi Calm Calm - N/A   Haze
7:55 AM 51.8 °F - 35.6 °F 54% 30.35 in 5.0 mi Calm Calm - N/A   Haze
8:15 AM 53.6 °F - 37.4 °F 54% 30.35 in 7.0 mi NW 3.5 mph - N/A   Clear
8:35 AM 57.2 °F - 42.8 °F 59% 30.35 in 7.0 mi Calm Calm - N/A   Clear
8:55 AM 60.8 °F - 44.6 °F 55% 30.35 in 7.0 mi North 3.5 mph - N/A   Clear
9:15 AM 60.8 °F - 44.6 °F 55% 30.35 in 7.0 mi North 4.6 mph - N/A   Clear
9:35 AM 62.6 °F - 46.4 °F 55% 30.36 in 8.0 mi NNW 3.5 mph - N/A   Clear
9:55 AM 64.4 °F - 48.2 °F 56% 30.35 in 8.0 mi Calm Calm - N/A   Clear
10:15 AM 66.2 °F - 50.0 °F 56% 30.35 in 9.0 mi Calm Calm - N/A   Clear
10:35 AM 66.2 °F - 51.8 °F 60% 30.34 in 9.0 mi Calm Calm - N/A   Clear
10:55 AM 69.8 °F - 51.8 °F 53% 30.34 in 8.0 mi Calm Calm - N/A   Clear
11:15 AM 69.8 °F - 53.6 °F 56% 30.33 in 9.0 mi North 3.5 mph - N/A   Clear
11:35 AM 71.6 °F - 53.6 °F 53% 30.32 in 8.0 mi North 6.9 mph - N/A   Clear
11:55 AM 71.6 °F - 55.4 °F 57% 30.31 in 8.0 mi North 6.9 mph - N/A   Clear
12:15 PM 71.6 °F - 55.4 °F 57% 30.30 in 9.0 mi North 3.5 mph - N/A   Clear
12:35 PM 73.4 °F - 55.4 °F 53% 30.29 in 8.0 mi Calm Calm - N/A   Clear
12:55 PM 71.6 °F - 55.4 °F 57% 30.28 in 8.0 mi NW 4.6 mph - N/A   Clear
1:15 PM 71.6 °F - 53.6 °F 53% 30.28 in 8.0 mi Calm Calm - N/A   Clear
1:35 PM 73.4 °F - 55.4 °F 53% 30.27 in 9.0 mi NNW 6.9 mph - N/A   Clear
1:55 PM 73.4 °F - 57.2 °F 57% 30.27 in 9.0 mi North 9.2 mph - N/A   Clear
2:15 PM 75.2 °F - 57.2 °F 53% 30.27 in 8.0 mi NNW 4.6 mph - N/A   Clear
2:35 PM 75.2 °F - 57.2 °F 53% 30.26 in 9.0 mi NNE 5.8 mph - N/A   Clear
2:55 PM 73.4 °F - 57.2 °F 57% 30.26 in 9.0 mi NNE 5.8 mph - N/A   Clear
3:15 PM 73.4 °F - 57.2 °F 57% 30.26 in 8.0 mi Calm Calm - N/A   Clear
3:35 PM 73.4 °F - 57.2 °F 57% 30.27 in 8.0 mi NNW 3.5 mph - N/A   Clear
3:55 PM 71.6 °F - 55.4 °F 57% 30.27 in 9.0 mi Calm Calm - N/A   Clear
4:15 PM 69.8 °F - 53.6 °F 56% 30.27 in 8.0 mi Calm Calm - N/A   Clear
4:35 PM 68.0 °F - 51.8 °F 56% 30.26 in 8.0 mi Calm Calm - N/A   Clear
4:55 PM 62.6 °F - 46.4 °F 55% 30.27 in 8.0 mi Calm Calm - N/A   Clear
5:15 PM 60.8 °F - 44.6 °F 55% 30.27 in 8.0 mi Calm Calm - N/A   Clear
5:35 PM 59.0 °F - 42.8 °F 55% 30.28 in 8.0 mi Calm Calm - N/A   Clear
5:55 PM 57.2 °F - 41.0 °F 55% 30.28 in 10.0 mi Calm Calm - N/A   Clear
6:15 PM 55.4 °F - 39.2 °F 54% 30.28 in 10.0 mi Calm Calm - N/A   Clear
6:35 PM 55.4 °F - 39.2 °F 54% 30.28 in 10.0 mi Calm Calm - N/A   Clear
6:55 PM 53.6 °F - 37.4 °F 54% 30.28 in 10.0 mi Calm Calm - N/A   Clear
7:15 PM 51.8 °F - 35.6 °F 54% 30.28 in 9.0 mi Calm Calm - N/A   Clear
7:35 PM 51.8 °F - 35.6 °F 54% 30.28 in 8.0 mi Calm Calm - N/A   Clear
7:55 PM 51.8 °F - 35.6 °F 54% 30.29 in 9.0 mi Calm Calm - N/A   Clear
8:15 PM 50.0 °F - 35.6 °F 58% 30.29 in 7.0 mi Calm Calm - N/A   Clear
8:35 PM 48.2 °F - 33.8 °F 58% 30.29 in 7.0 mi Calm Calm - N/A   Clear
8:55 PM 48.2 °F - 33.8 °F 58% 30.29 in 7.0 mi Calm Calm - N/A   Unknown
9:15 PM 48.2 °F - 33.8 °F 58% 30.30 in 5.0 mi Calm Calm - N/A   Haze
9:35 PM 46.4 °F - 32.0 °F 57% 30.30 in 5.0 mi Calm Calm - N/A   Haze
9:55 PM 46.4 °F 45.2 °F 32.0 °F 57% 30.29 in 5.0 mi NE 3.5 mph - N/A   Haze
10:15 PM 46.4 °F - 32.0 °F 57% 30.29 in 7.0 mi Calm Calm - N/A   Clear
10:35 PM 46.4 °F 45.2 °F 32.0 °F 57% 30.29 in 5.0 mi NNE 3.5 mph - N/A   Haze
10:55 PM 46.4 °F - 32.0 °F 57% 30.29 in 5.0 mi Calm Calm - N/A   Haze
11:15 PM 46.4 °F - 32.0 °F 57% 30.29 in 5.0 mi Calm Calm - N/A   Haze
11:35 PM 44.6 °F - 32.0 °F 61% 30.29 in 1.5 mi Calm Calm - N/A   Haze
11:55 PM 46.4 °F - 32.0 °F 57% 30.29 in 7.0 mi Calm Calm - N/A   Clear